Springfield, VT

4:57 AM EST on February 21, 2018 (GMT -0500)
Hartness State

Weather History for KVSF - June, 2014

Change the Weather History Date:

Wednesday, June 18, 2014

  Actual Average Record
Temperature  
Mean Temperature 72 °F 65 °F  
Max Temperature 79 °F 77 °F 93 °F (2006)
Min Temperature 64 °F 53 °F 43 °F (2002)
Degree Days  
Heating Degree Days 0 2  
Month to date heating degree days 79  
Since 1 June heating degree days 79  
Since 1 July heating degree days 7502  
Cooling Degree Days 7 2  
Month to date cooling degree days 26 28  
Year to date cooling degree days 31 40  
Since 1 June cooling degree days 26 28  
Growing Degree Days 22 (Base 50)    
Moisture  
Dew Point 62 °F    
Average Humidity 72    
Maximum Humidity 93    
Minimum Humidity 50    
Precipitation  
Precipitation 0.47 in 0.12 in 0.47 in (2014)
Month to date precipitation 2.72 2.55  
Year to date precipitation 16.25 18.82  
Sea Level Pressure  
Sea Level Pressure 29.82 in    
Wind  
Wind Speed 7 mph (WNW)    
Max Wind Speed 20 mph    
Max Gust Speed 23 mph    
Visibility 9 miles    
Events Rain , Thunderstorm    
T = Trace of Precipitation, MM = Missing Value Source: NWS Daily Summary

Daily Weather History Graph

Daily Weather History Graph

Search for Another Location

Airport or City:

Trip Planner

Search our weather history database for the weather conditions in past years. The results will help you decide how hot, cold, wet, or windy it might be!

Date:

Astronomy

Jun. 18, 2014 Rise Set
Actual Time 5:09 AM EDT 8:33 PM EDT
Civil Twilight 4:33 AM EDT 9:09 PM EDT
Nautical Twilight 3:46 AM EDT 9:55 PM EDT
Astronomical Twilight 2:48 AM EDT 10:53 PM EDT
Moon No Moon Rise 11:39 AM EDT (6/18)
Length of Visible Light 16h 35m
Length of Day
15h 24m
Waning Gibbous, 63% of the Moon is Illuminated
Jun 18
Waning Gibbous
Jun 19
Last Quarter
Jun 27
New
Jul 5
First Quarter
Jul 12
Full

Hourly Weather History & Observations

Time (EDT) Temp. Dew Point Humidity Pressure Visibility Wind Dir Wind Speed Gust Speed Precip Events Conditions
12:54 AM 69.1 °F 62.1 °F 78% 29.78 in 7.0 mi WNW 19.6 mph - N/A   Scattered Clouds
1:03 AM 66.9 °F 64.0 °F 90% 29.78 in 0.8 mi Variable 3.5 mph 28.8 mph 0.25 in Rain , Thunderstorm Heavy Thunderstorms and Rain
1:11 AM 66.9 °F 64.9 °F 93% 29.78 in 2.0 mi South 8.1 mph - 0.30 in Rain , Thunderstorm Heavy Thunderstorms and Rain
1:21 AM 66.9 °F 64.9 °F 93% 29.77 in 4.0 mi SSE 4.6 mph - 0.33 in Rain , Thunderstorm Rain
1:33 AM 66.9 °F 64.9 °F 93% 29.77 in 4.0 mi Calm Calm - 0.37 in Rain , Thunderstorm Thunderstorms and Rain
1:54 AM 66.9 °F 64.9 °F 93% 29.77 in 7.0 mi South 3.5 mph - 0.41 in Rain , Thunderstorm Light Rain
2:12 AM 66.0 °F 64.9 °F 96% 29.76 in 7.0 mi Variable 3.5 mph - 0.02 in Rain Light Rain
2:54 AM 68.0 °F 64.9 °F 90% 29.75 in 10.0 mi SSW 8.1 mph - 0.05 in Rain Light Rain
3:54 AM 66.9 °F 64.0 °F 90% 29.72 in 10.0 mi South 5.8 mph - 0.01 in   Mostly Cloudy
4:42 AM 66.9 °F 64.9 °F 93% 29.71 in 10.0 mi NNW 3.5 mph - N/A   Overcast
4:54 AM 68.0 °F 64.0 °F 87% 29.71 in 10.0 mi Calm Calm - N/A   Overcast
5:02 AM 66.9 °F 64.9 °F 93% 29.72 in 10.0 mi Variable 3.5 mph - N/A   Overcast
5:14 AM 66.9 °F 64.9 °F 93% 29.72 in 10.0 mi North 3.5 mph - N/A   Overcast
5:54 AM 66.9 °F 64.9 °F 93% 29.72 in 10.0 mi Variable 3.5 mph - N/A   Overcast
6:54 AM 70.0 °F 64.0 °F 81% 29.74 in 10.0 mi West 8.1 mph - N/A   Overcast
7:54 AM 71.1 °F 62.1 °F 73% 29.78 in 10.0 mi NW 9.2 mph 23.0 mph 0.00 in Rain Light Rain
8:54 AM 73.0 °F 61.0 °F 66% 29.78 in 10.0 mi NNW 13.8 mph 19.6 mph 0.00 in   Scattered Clouds
9:54 AM 73.9 °F 60.1 °F 62% 29.81 in 10.0 mi NW 11.5 mph 21.9 mph N/A   Clear
10:54 AM 77.0 °F 60.1 °F 56% 29.84 in 10.0 mi NW 11.5 mph 23.0 mph N/A   Partly Cloudy
11:54 AM 77.0 °F 61.0 °F 58% 29.87 in 10.0 mi West 13.8 mph - N/A   Mostly Cloudy
12:54 PM 77.0 °F 62.1 °F 60% 29.88 in 10.0 mi West 12.7 mph 25.3 mph N/A   Partly Cloudy
1:54 PM 75.9 °F 60.1 °F 58% 29.90 in 10.0 mi WNW 10.4 mph 19.6 mph N/A   Clear
2:54 PM 78.1 °F 60.1 °F 54% 29.90 in 10.0 mi WNW 15.0 mph 20.7 mph N/A   Partly Cloudy
3:54 PM 78.1 °F 59.0 °F 52% 29.88 in 10.0 mi NW 11.5 mph 23.0 mph N/A   Clear
4:54 PM 78.1 °F 57.0 °F 48% 29.89 in 10.0 mi NW 10.4 mph - N/A   Partly Cloudy
5:54 PM 78.1 °F 57.0 °F 48% 29.89 in 10.0 mi WNW 10.4 mph - N/A   Mostly Cloudy
6:54 PM 77.0 °F 57.0 °F 50% 29.89 in 10.0 mi West 11.5 mph - N/A   Partly Cloudy
7:54 PM 75.0 °F 57.0 °F 53% 29.92 in 10.0 mi West 4.6 mph - N/A   Clear
8:54 PM 72.0 °F 57.9 °F 61% 29.93 in 10.0 mi WNW 4.6 mph - N/A   Clear
9:54 PM 71.1 °F 57.9 °F 63% 29.95 in 10.0 mi West 3.5 mph - N/A   Clear
10:54 PM 66.9 °F 59.0 °F 76% 29.96 in 10.0 mi NE 3.5 mph - N/A   Clear
11:54 PM 68.0 °F 59.0 °F 73% 29.96 in 10.0 mi West 3.5 mph - N/A   Clear